[[{"header":{"parameterUnit":"m.s-1","parameterCategory":1,"la1":30.2991,"la2":30.254,"lo1":-89.0895,"lo2":-89.0444,"dy":0.0017,"dx":0.0017,"nx":28,"ny":28,"refTime":"2024-04-12T03:00:00:Z","depth":0,"parameterNumber":2,"parameterNumberName":"U-component_of_WINDS"},"data":[0,0,0,0,0,0,0,0,0,0,0,0,0,0,0,0,0,0,0,0,0,0,0,0,0,0,0,0,0,0,0,0,0,0,0,0,0,0,0,0,0,0,0,0,0,0,0,0,0,0,0,0,0,0,0,0,0,0,-2.6542,-2.6542,0,-2.6532,-2.6532,-2.6532,-2.6449,-2.6447,-2.6445,-2.6443,-2.6435,-2.6436,-2.6438,0,0,0,0,0,0,0,0,0,0,0,0,0,-2.6491,-2.6493,-2.6542,-2.6542,-2.6541,-2.6532,-2.6532,-2.6532,-2.6449,-2.6447,-2.6444,-2.6442,-2.6434,-2.6436,-2.6438,0,0,0,0,0,0,0,0,0,0,0,0,0,-2.6501,-2.6493,-2.6542,-2.6499,-2.6495,-2.6532,-2.6532,-2.6532,-2.645,-2.6447,-2.6443,-2.6441,-2.6434,-2.6436,-2.6439,-2.6516,0,0,-2.6446,-2.6448,0,0,0,0,0,0,0,0,-2.65,-2.6503,-2.6505,-2.6502,-2.6498,-2.6488,-2.6511,-2.6526,-2.645,-2.6467,-2.6443,-2.6439,-2.6455,-2.6456,-2.6461,-2.6516,-2.6515,-2.6447,-2.6448,-2.6449,-2.645,0,0,0,0,0,0,0,-2.65,-2.6503,-2.6538,-2.6506,-2.6501,-2.6481,-2.6479,-2.6514,-2.6479,-2.6465,-2.6459,-2.6459,-2.6453,-2.6459,-2.646,-2.6515,-2.6447,-2.6449,-2.645,-2.6451,-2.6635,-2.6638,0,0,0,0,0,0,-2.6505,-2.6503,-2.6538,-2.6537,-2.6491,-2.6485,-2.6482,-2.6495,-2.6478,-2.6472,-2.6462,-2.6455,-2.6456,-2.6457,-2.6459,-2.655,-2.6449,-2.6452,-2.6453,-2.6632,-2.6636,-2.6639,0,0,0,0,0,0,-2.6504,-2.6509,-2.6538,-2.6518,-2.6521,-2.6489,-2.6503,-2.6496,-2.6502,-2.6475,-2.6469,-2.6474,-2.6453,-2.6456,-2.6503,-2.6549,-2.6453,-2.6455,-2.6628,-2.6633,-2.6638,-2.6732,0,0,0,0,0,0,-2.6503,-2.6509,-2.6537,-2.652,-2.6522,-2.6582,-2.6506,-2.6498,-2.6506,-2.6498,-2.6485,-2.648,-2.6451,-2.65,-2.6505,-2.6551,-2.6457,-2.6624,-2.663,-2.6636,-2.6725,-2.674,-2.6753,0,0,0,0,0,-2.6501,-2.6564,-2.6539,-2.6544,-2.6557,-2.6584,-2.6586,-2.655,-2.651,-2.6539,-2.6522,-2.6481,-2.6543,-2.6505,-2.6511,-2.6558,-2.662,-2.6628,-2.6636,-2.6719,-2.6737,-2.6752,0,0,0,0,0,0,-2.6589,-2.6561,-2.6533,-2.6592,-2.6591,-2.657,-2.6606,-2.6571,-2.6582,-2.6573,-2.6529,-2.6527,-2.6582,-2.6574,-2.6532,-2.6633,-2.6574,-2.6584,-2.6636,-2.6653,-2.6666,-2.6668,-2.6459,0,0,0,0,0,-2.6615,-2.6639,-2.6614,-2.6668,-2.6669,-2.6638,-2.6648,-2.6621,-2.6619,-2.6618,-2.6605,-2.6605,-2.6624,-2.6638,-2.6654,-2.6723,-2.672,-2.6758,-2.6772,-2.6784,-2.6793,-2.683,-2.6847,-2.6664,-2.6664,-2.6664,0,0,-2.6669,-2.6657,-2.6675,-2.6686,-2.6682,-2.6709,-2.6638,-2.6669,-2.6689,-2.6623,-2.6667,-2.6657,-2.6654,-2.6713,-2.6738,-2.6708,-2.6842,-2.6793,-2.6803,-2.6805,-2.684,-2.6857,-2.6873,-2.6669,-2.6668,-2.6667,0,0,-2.6782,-2.6775,-2.682,-2.6818,-2.6813,-2.6791,-2.6803,-2.6787,-2.6778,-2.6821,-2.6773,-2.6796,-2.683,-2.683,-2.6835,-2.695,-2.6912,-2.6956,-2.7029,-2.7066,-2.7081,-2.7093,-2.7136,-2.7151,-2.6965,-2.6965,-2.6965,0,-2.6851,-2.6888,-2.6848,-2.6883,-2.689,-2.6831,-2.6877,-2.6877,-2.6878,-2.6885,-2.6851,-2.6893,-2.6887,-2.6946,-2.6974,-2.6979,-2.6992,-2.6958,-2.7082,-2.7094,-2.7105,-2.7145,-2.7161,-2.697,-2.697,-2.6969,-2.6969,0,-2.6973,-2.7,-2.7038,-2.704,-2.7051,-2.7091,-2.7059,-2.7074,-2.7047,-2.703,-2.7075,-2.7065,-2.708,-2.7091,-2.7064,-2.7147,-2.7129,-2.7089,-2.703,-2.7129,-2.7166,-2.7181,-2.6978,-2.6976,-2.6975,-2.6973,0,0,-2.7141,-2.7121,-2.7136,-2.7137,-2.7127,-2.7148,-2.7186,-2.7199,-2.7215,-2.7217,-2.725,-2.728,-2.7244,-2.7249,-2.7222,-2.7254,-2.7348,-2.7211,-2.721,-2.7238,-2.744,-2.7471,-2.7489,-2.7322,-2.7325,-2.7327,-2.7441,0,-2.7251,-2.7315,-2.728,-2.7349,-2.7375,-2.732,-2.7353,-2.7352,-2.7337,-2.7357,-2.734,-2.7364,-2.7313,-2.7316,-2.7346,-2.733,-2.7388,-2.7321,-2.7353,-2.7355,-2.7357,-2.7508,-2.754,-2.7648,-2.7455,-2.7457,-2.7459,0,-2.7387,-2.7396,-2.7468,-2.7455,-2.7464,-2.7495,-2.7505,-2.7524,-2.7522,-2.7509,-2.7516,-2.7481,-2.7519,-2.746,-2.7512,-2.7468,-2.7479,-2.7473,-2.7476,-2.7479,-2.7414,-2.7516,-2.7681,-2.7698,-2.7481,-2.7479,-2.7478,0,-2.7505,-2.7534,-2.7581,-2.7583,-2.7569,-2.7592,-2.7587,-2.7582,-2.7592,-2.7602,-2.7608,-2.7622,-2.763,-2.7642,-2.7612,-2.7572,-2.767,-2.7607,-2.7661,-2.7662,-2.7685,-2.7684,-2.7856,-2.769,-2.769,-2.769,-2.7689,0,-2.7632,-2.7678,-2.7634,-2.7663,-2.7714,-2.7674,-2.7726,-2.7715,-2.7711,-2.7738,-2.7691,-2.7717,-2.7676,-2.7698,-2.7675,-2.7723,-2.7727,-2.7718,-2.7712,-2.7723,-2.7725,-2.7731,-2.7723,-2.7694,-2.7693,-2.7692,-2.7691,0,-2.7771,-2.7743,-2.7791,-2.7774,-2.7771,-2.7809,-2.7794,-2.7821,-2.7803,-2.7838,-2.7844,-2.7816,-2.784,-2.7812,-2.7834,-2.7818,-2.7884,-2.7866,-2.7885,-2.788,-2.7936,-2.7932,-2.8119,-2.8142,-2.796,-2.7962,-2.7963,0,-2.7855,-2.7889,-2.7876,-2.789,-2.7888,-2.7912,-2.7923,-2.7885,-2.7899,-2.7899,-2.7927,-2.7947,-2.7961,-2.8003,-2.7985,-2.8002,-2.7985,-2.8049,-2.7987,-2.7998,-2.7988,-2.7987,-2.7991,-2.8063,-2.8065,-2.8067,-2.8068,0,-2.8007,-2.7991,-2.8008,-2.8021,-2.8035,-2.8044,-2.8049,-2.8063,-2.8025,-2.8042,-2.8066,-2.8078,-2.81,-2.8122,-2.8134,-2.813,-2.8094,-2.8087,-2.8101,-2.8114,-2.8124,-2.8121,-2.7921,-2.8084,-2.8082,-2.8081,-2.808,-2.8079,-2.8121,-2.815,-2.8146,-2.8167,-2.8166,-2.8172,-2.8197,-2.8182,-2.8202,-2.8217,-2.8194,-2.8225,-2.8223,-2.8235,-2.8235,-2.826,-2.8232,-2.8252,-2.8257,-2.8263,-2.8272,-2.8119,-2.8262,-2.8261,-2.8261,-2.826,-2.826,0,-2.8272,-2.8266,-2.8286,-2.8295,-2.8312,-2.8275,-2.8279,-2.8296,-2.8323,-2.8324,-2.834,-2.8368,-2.8389,-2.8373,-2.8391,-2.8414,-2.8398,-2.842,-2.8419,-2.8419,-2.8294,-2.8282,-2.8433,-2.8433,-2.8433,-2.8433,-2.8433,-2.8433,-2.8352,-2.84,-2.8384,-2.8431,-2.8425,-2.8455,-2.846,-2.8466,-2.8467,-2.8501,-2.8518,-2.8507,-2.8502,-2.8519,-2.8537,-2.8532,-2.8541,-2.857,-2.8559,-2.8444,-2.8427,-2.8411,-2.8399,-2.8572,-2.8572,-2.8681,-2.8682,-2.8683]},{"header":{"parameterUnit":"m.s-1","parameterCategory":1,"la1":30.2991,"la2":30.254,"lo1":-89.0895,"lo2":-89.0444,"dy":0.0017,"dx":0.0017,"nx":28,"ny":28,"refTime":"2024-04-12T03:00:00:Z","depth":0,"parameterNumber":3,"parameterNumberName":"V-component_of_WINDS"},"data":[0,0,0,0,0,0,0,0,0,0,0,0,0,0,0,0,0,0,0,0,0,0,0,0,0,0,0,0,0,0,0,0,0,0,0,0,0,0,0,0,0,0,0,0,0,0,0,0,0,0,0,0,0,0,0,0,0,0,-0.3192,-0.3193,0,-0.3237,-0.3237,-0.3238,-0.3233,-0.3232,-0.3232,-0.3231,-0.3278,-0.328,-0.3282,0,0,0,0,0,0,0,0,0,0,0,0,0,-0.3103,-0.3105,-0.3192,-0.3193,-0.3193,-0.3237,-0.3237,-0.3238,-0.3233,-0.3232,-0.3232,-0.3231,-0.3277,-0.328,-0.3282,0,0,0,0,0,0,0,0,0,0,0,0,0,-0.3144,-0.3106,-0.3192,-0.3196,-0.3197,-0.3236,-0.3237,-0.3238,-0.3233,-0.3232,-0.3231,-0.323,-0.3277,-0.3279,-0.3282,-0.3321,0,0,-0.3291,-0.3292,0,0,0,0,0,0,0,0,-0.3142,-0.3148,-0.3195,-0.3196,-0.3197,-0.3228,-0.3223,-0.3266,-0.3234,-0.322,-0.3231,-0.323,-0.3262,-0.3266,-0.3277,-0.3323,-0.3325,-0.3291,-0.3293,-0.3294,-0.3295,0,0,0,0,0,0,0,-0.3139,-0.3146,-0.321,-0.3196,-0.3197,-0.3196,-0.3201,-0.3231,-0.3246,-0.3221,-0.3221,-0.3226,-0.3263,-0.3274,-0.3278,-0.3326,-0.3291,-0.3293,-0.3295,-0.3296,-0.3405,-0.3406,0,0,0,0,0,0,-0.3135,-0.3143,-0.3208,-0.3211,-0.3166,-0.3198,-0.3204,-0.3219,-0.3246,-0.3249,-0.3227,-0.3225,-0.327,-0.3275,-0.328,-0.3327,-0.3294,-0.3297,-0.3298,-0.3404,-0.3405,-0.3406,0,0,0,0,0,0,-0.3133,-0.3141,-0.3207,-0.3177,-0.3185,-0.3201,-0.3219,-0.3221,-0.3232,-0.325,-0.3253,-0.3236,-0.3269,-0.3276,-0.331,-0.3328,-0.3298,-0.3301,-0.3402,-0.3404,-0.3406,-0.3421,0,0,0,0,0,0,-0.3131,-0.3141,-0.3155,-0.3178,-0.3187,-0.3237,-0.322,-0.3222,-0.3237,-0.3236,-0.326,-0.3263,-0.3269,-0.3306,-0.3313,-0.3332,-0.3303,-0.3401,-0.3403,-0.3405,-0.3419,-0.3423,-0.3427,0,0,0,0,0,-0.3128,-0.3158,-0.3156,-0.3164,-0.3206,-0.3238,-0.3243,-0.3249,-0.3239,-0.3254,-0.3265,-0.3262,-0.3325,-0.331,-0.3318,-0.3337,-0.34,-0.3403,-0.3405,-0.3418,-0.3423,-0.3427,0,0,0,0,0,0,-0.3139,-0.3161,-0.3159,-0.3198,-0.3216,-0.3237,-0.3256,-0.3254,-0.3276,-0.3274,-0.3281,-0.3287,-0.3322,-0.3333,-0.3316,-0.3376,-0.3361,-0.3365,-0.3368,-0.3373,-0.3376,-0.3374,-0.3305,0,0,0,0,0,-0.3145,-0.3169,-0.3188,-0.322,-0.3229,-0.3241,-0.3255,-0.3258,-0.3277,-0.3285,-0.3299,-0.3318,-0.3342,-0.3357,-0.3381,-0.342,-0.3426,-0.3438,-0.3441,-0.3444,-0.3449,-0.347,-0.3476,-0.3415,-0.3415,-0.3415,0,0,-0.316,-0.3175,-0.319,-0.3222,-0.3237,-0.3261,-0.3247,-0.3274,-0.3292,-0.3289,-0.3323,-0.3333,-0.3355,-0.3392,-0.3409,-0.3403,-0.3466,-0.3448,-0.345,-0.3453,-0.3474,-0.348,-0.3485,-0.3417,-0.3417,-0.3416,0,0,-0.3199,-0.3213,-0.3241,-0.3255,-0.3277,-0.3284,-0.3291,-0.3312,-0.3319,-0.3353,-0.3351,-0.3372,-0.3414,-0.3429,-0.3442,-0.3485,-0.3483,-0.3493,-0.3513,-0.3534,-0.3539,-0.3544,-0.356,-0.3565,-0.3496,-0.3496,-0.3496,0,-0.3215,-0.3252,-0.3256,-0.3283,-0.3297,-0.3294,-0.3323,-0.3337,-0.3365,-0.3375,-0.3366,-0.3418,-0.3432,-0.3473,-0.3483,-0.3494,-0.3502,-0.3491,-0.3538,-0.3542,-0.3547,-0.3562,-0.3568,-0.3497,-0.3497,-0.3497,-0.3497,0,-0.327,-0.3295,-0.3316,-0.3342,-0.3359,-0.3386,-0.3395,-0.3411,-0.3412,-0.3421,-0.3455,-0.3471,-0.3498,-0.3507,-0.3509,-0.3549,-0.3544,-0.3536,-0.3522,-0.3553,-0.3568,-0.3574,-0.3499,-0.3499,-0.3498,-0.3498,0,0,-0.3319,-0.3347,-0.3354,-0.3366,-0.3389,-0.3409,-0.3436,-0.3461,-0.3475,-0.3494,-0.3517,-0.3551,-0.3545,-0.3559,-0.3563,-0.3581,-0.3615,-0.3572,-0.3572,-0.358,-0.366,-0.3666,-0.3673,-0.3613,-0.3614,-0.3615,-0.3658,0,-0.3362,-0.341,-0.3414,-0.3457,-0.3481,-0.3478,-0.3501,-0.3518,-0.3526,-0.3547,-0.3556,-0.358,-0.3569,-0.3578,-0.3596,-0.3607,-0.3631,-0.3604,-0.3635,-0.3637,-0.3632,-0.3681,-0.3688,-0.3728,-0.3664,-0.3665,-0.3666,0,-0.3418,-0.3438,-0.3484,-0.3502,-0.3512,-0.3534,-0.3557,-0.3577,-0.3595,-0.36,-0.3616,-0.3616,-0.3644,-0.3627,-0.3666,-0.3647,-0.366,-0.3667,-0.3669,-0.3673,-0.3654,-0.3688,-0.3741,-0.3748,-0.3675,-0.3674,-0.3673,0,-0.345,-0.3489,-0.3521,-0.3531,-0.3554,-0.3569,-0.3579,-0.3596,-0.3611,-0.363,-0.364,-0.3663,-0.3676,-0.3694,-0.37,-0.3687,-0.3739,-0.3723,-0.3744,-0.3744,-0.3757,-0.3757,-0.3815,-0.3763,-0.3763,-0.3763,-0.3763,0,-0.3498,-0.3526,-0.3536,-0.3556,-0.3587,-0.3591,-0.3622,-0.3632,-0.3647,-0.3669,-0.3666,-0.3687,-0.3693,-0.3715,-0.372,-0.3752,-0.3757,-0.3762,-0.3764,-0.3764,-0.3763,-0.3773,-0.3771,-0.3764,-0.3764,-0.3764,-0.3763,0,-0.3541,-0.3548,-0.3583,-0.3601,-0.3606,-0.3628,-0.3644,-0.3663,-0.367,-0.3698,-0.3704,-0.3716,-0.3741,-0.3749,-0.3779,-0.3782,-0.382,-0.3818,-0.3814,-0.3814,-0.3836,-0.3834,-0.3904,-0.3914,-0.3855,-0.3855,-0.3856,0,-0.3571,-0.3593,-0.3613,-0.3627,-0.3638,-0.3661,-0.3675,-0.368,-0.3695,-0.3717,-0.3734,-0.3758,-0.3779,-0.3819,-0.383,-0.3853,-0.3853,-0.3875,-0.3856,-0.3855,-0.3855,-0.3854,-0.3856,-0.388,-0.388,-0.3881,-0.3881,0,-0.3626,-0.3628,-0.3649,-0.3671,-0.3688,-0.3706,-0.3723,-0.3735,-0.3742,-0.3759,-0.3785,-0.38,-0.3831,-0.3856,-0.3879,-0.3889,-0.3887,-0.3887,-0.3893,-0.3894,-0.3891,-0.3894,-0.3825,-0.3886,-0.3885,-0.3885,-0.3885,-0.3885,-0.3664,-0.3683,-0.37,-0.3723,-0.3736,-0.3752,-0.3771,-0.378,-0.3801,-0.3826,-0.3827,-0.3855,-0.3872,-0.3903,-0.3914,-0.3936,-0.393,-0.3939,-0.3942,-0.3944,-0.3946,-0.3886,-0.394,-0.394,-0.394,-0.394,-0.394,0,-0.3719,-0.3729,-0.375,-0.3774,-0.3793,-0.3787,-0.3805,-0.3821,-0.3846,-0.3861,-0.3881,-0.391,-0.3934,-0.3946,-0.397,-0.3985,-0.3984,-0.3991,-0.3991,-0.3993,-0.395,-0.3943,-0.3991,-0.3991,-0.3991,-0.3991,-0.3991,-0.3991,-0.375,-0.3782,-0.3786,-0.3824,-0.3834,-0.3861,-0.3872,-0.3886,-0.3899,-0.3931,-0.3951,-0.3958,-0.3973,-0.3997,-0.4019,-0.4022,-0.4031,-0.4039,-0.4041,-0.4001,-0.3996,-0.3991,-0.3984,-0.404,-0.404,-0.4082,-0.4083,-0.4083]}]]